Theta_e
355 364 368 367 366 365 365 364 362 361 361 362 361 362 362 362 361 361 362 363 363 363 363 361 360 357 354 354 356 358 358 358 357 354 354 354 352 352 354 355 357 349 352
358 363 367 366 366 365 364 363 362 361 361 361 361 362 362 362 362 362 362 362 363 363 361 360 359 356 355 354 355 355 355 356 356 354 353 352 351 352 352 354 352 351 351
357 362 366 366 366 365 364 362 361 361 361 361 361 362 362 363 362 361 362 362 362 360 359 358 357 356 355 354 354 355 355 355 355 354 353 348 347 350 352 353 352 350 350
357 359 364 365 365 364 363 361 361 361 361 361 361 361 362 362 362 361 361 361 360 358 357 357 356 355 354 354 354 354 354 354 355 354 350 352 349 353 351 351 351 350 350
353 359 364 365 364 364 362 361 361 361 361 361 361 361 362 362 362 361 360 359 359 356 355 354 355 354 353 353 354 355 354 354 356 356 350 347 347 352 355 354 351 350 350
353 360 365 364 364 363 362 361 361 361 361 361 361 361 361 362 361 361 359 359 359 358 356 355 355 356 355 355 354 355 357 357 357 350 349 350 341 355 357 355 356 353 354
356 360 363 364 364 363 362 362 361 361 361 361 361 361 361 361 361 361 360 358 360 360 358 356 357 356 356 356 357 356 355 355 350 347 347 347 343 355 357 356 354 355 356
355 359 361 364 363 362 362 361 361 360 360 360 360 360 361 361 361 361 360 358 358 360 359 359 359 357 357 356 355 353 354 354 348 343 343 343 349 355 358 357 355 354 355
354 355 358 358 359 360 361 361 360 360 359 359 359 360 360 360 360 360 360 359 358 357 358 358 357 357 356 355 354 353 353 354 345 343 341 342 355 358 360 357 356 355 355
351 354 354 355 355 355 359 361 359 359 359 358 359 359 358 359 359 359 357 357 358 357 356 356 356 355 354 353 352 352 353 353 344 341 338 337 355 360 361 359 358 357 356
347 349 353 354 354 354 356 358 359 360 359 359 359 358 356 351 353 356 355 357 357 356 355 355 354 353 352 352 352 352 354 343 339 337 336 345 352 360 360 359 357 357 357
341 344 348 351 352 354 357 355 354 356 355 354 353 352 348 344 347 352 352 357 357 357 356 355 354 353 354 345 339 350 344 341 337 335 333 347 353 358 358 355 353 353 352
340 341 342 345 347 350 352 352 352 352 351 350 349 348 343 341 347 346 346 351 349 355 348 350 348 347 343 339 336 330 338 338 335 337 338 347 354 358 358 356 353 353 352
339 339 340 341 341 341 348 347 346 346 345 343 345 344 340 338 342 338 346 344 345 345 344 341 342 342 340 338 335 332 334 336 337 337 334 351 353 356 357 356 354 353 352
338 338 338 339 338 342 340 339 341 340 341 340 343 342 339 339 341 337 340 343 344 342 342 340 340 340 340 339 337 335 335 335 334 335 333 347 353 353 354 355 355 355 354
340 338 339 338 340 342 338 340 341 342 342 342 343 343 340 340 345 342 342 343 343 343 342 343 342 340 338 338 336 337 338 338 336 335 336 338 352 351 351 353 356 356 353
349 348 340 342 345 344 343 341 346 345 345 345 344 344 342 345 349 348 348 349 348 347 348 345 342 340 337 336 334 336 337 336 336 337 339 341 347 348 350 349 349 349 345
347 346 349 354 346 350 351 345 349 348 348 349 347 348 350 349 352 350 346 346 349 347 343 342 340 340 340 339 338 338 336 340 341 341 340 338 345 347 345 344 346 347 343
345 344 347 349 350 350 354 355 353 353 353 353 354 351 354 354 353 349 349 348 349 345 345 344 342 341 339 339 341 341 341 341 341 344 342 339 340 343 340 341 344 343 343
341 338 344 346 348 351 356 354 354 353 353 351 353 353 355 351 352 349 348 348 347 344 342 342 342 345 342 342 344 343 340 341 340 340 341 344 343 341 338 338 339 340 347
346 341 338 340 348 352 350 348 347 345 348 348 351 354 353 352 353 350 347 345 345 344 343 343 343 340 337 340 337 334 335 337 336 337 339 340 339 338 335 335 333 333 338
344 338 331 342 349 350 351 350 349 347 348 346 350 352 350 351 350 349 346 346 346 343 342 342 339 337 336 337 331 329 324 327 329 332 331 332 332 331 331 331 330 332 332
345 342 339 344 337 348 352 351 348 345 344 344 345 346 348 351 350 348 345 343 340 341 339 338 337 334 330 331 332 332 324 321 325 328 328 328 329 331 330 332 333 334 333
343 341 339 345 347 349 348 347 343 340 339 341 344 345 344 345 345 344 341 339 336 337 332 332 335 331 329 325 327 332 330 327 319 316 323 326 326 327 328 330 331 333 332
342 338 328 334 345 348 347 346 345 339 341 345 345 337 336 336 337 337 335 331 327 328 326 324 324 326 326 324 322 322 321 321 322 319 315 318 323 323 324 323 323 325 328
344 339 339 343 342 345 344 343 342 341 341 343 337 334 333 329 329 327 328 326 323 321 319 317 317 318 319 318 317 316 314 314 312 311 310 310 313 317 319 319 315 319 321
Wind_Speed
6 12 16 17 19 19 20 19 18 18 18 18 18 17 16 16 17 17 17 15 13 12 11 10 10 11 11 11 11 11 12 11 11 11 13 12 11 11 9 9 9 9 9
14 10 17 18 17 18 19 19 18 17 17 18 18 17 16 15 15 15 14 13 12 11 11 9 10 10 11 10 10 10 10 8 8 9 9 8 7 9 10 10 10 8 8
13 11 14 18 19 18 19 19 18 17 17 18 18 17 15 14 14 13 12 12 12 12 10 10 9 9 9 9 8 8 6 5 4 4 3 3 3 5 9 10 8 7 6
15 10 11 18 18 19 18 18 18 17 17 18 17 17 15 14 13 11 11 11 11 11 9 9 9 8 8 8 7 5 4 5 5 5 2 4 6 8 8 9 8 7 5
14 11 13 18 19 19 19 19 18 17 17 18 18 17 15 14 13 11 10 10 10 11 9 8 8 8 7 7 5 4 4 5 7 7 4 5 7 10 11 10 8 8 6
13 12 15 17 18 19 19 19 19 18 18 17 17 16 14 13 13 11 10 9 10 10 10 9 8 7 7 7 5 2 2 5 8 5 5 4 7 13 13 12 10 9 9
14 13 12 17 18 18 19 18 18 18 17 17 17 16 15 13 12 11 10 9 10 10 10 9 8 8 7 7 5 3 3 5 5 5 5 3 7 15 15 13 11 11 10
15 14 13 16 17 18 20 19 18 18 17 17 16 15 15 13 12 11 10 10 9 10 9 8 8 7 7 6 6 6 6 7 7 6 5 5 9 15 15 14 12 11 11
18 14 11 13 16 18 17 19 19 18 18 17 16 15 15 13 12 11 9 8 7 7 7 6 6 5 5 6 6 7 7 8 6 5 9 2 8 11 13 13 13 13 12
16 15 11 9 13 13 11 17 18 17 17 16 15 14 13 12 11 9 8 7 7 6 5 5 5 6 6 6 7 8 9 10 6 6 6 6 12 14 13 12 12 12 12
14 15 13 12 11 11 10 12 15 18 17 16 14 14 11 5 6 7 8 9 7 6 5 5 5 6 7 8 9 11 12 4 5 5 5 13 13 16 15 14 14 14 13
17 16 15 14 14 13 10 13 9 10 8 7 7 8 5 6 6 9 9 11 10 9 9 7 7 8 8 4 4 11 4 6 5 7 6 14 15 18 17 16 16 15 14
20 16 16 15 14 14 10 7 5 5 5 5 8 8 6 5 6 5 3 5 4 10 4 6 6 5 6 5 6 4 6 5 4 6 9 14 15 17 17 15 15 15 15
20 20 17 15 13 10 9 7 7 6 5 5 6 8 5 3 6 5 5 5 5 3 5 5 4 6 6 7 8 7 6 6 5 5 6 11 12 13 13 15 16 15 15
19 20 18 16 13 11 12 8 8 7 7 7 7 8 6 5 5 5 5 4 4 4 5 5 3 2 6 6 6 7 8 7 7 4 3 11 9 13 15 17 17 16 17
12 21 22 20 12 11 9 11 10 8 9 7 7 8 7 5 3 4 4 5 4 5 5 5 5 4 4 4 6 5 5 6 7 7 5 5 4 4 10 16 14 12 16
10 13 9 7 11 15 8 7 6 7 8 8 9 10 8 6 4 5 3 3 3 2 4 3 3 3 4 4 5 5 5 7 6 8 5 3 3 10 10 7 7 8 13
18 18 11 0 6 12 9 5 2 4 8 7 8 8 6 5 5 5 3 2 1 3 3 3 4 4 4 4 3 5 5 5 6 5 4 4 1 4 6 9 5 3 7
21 23 16 14 6 3 9 5 4 6 3 4 6 8 7 7 6 5 2 1 1 3 4 4 2 2 3 4 5 5 5 6 7 7 7 6 4 4 2 12 10 8 14
22 17 11 9 12 6 4 6 3 3 3 4 6 6 7 5 6 5 3 3 4 3 3 3 4 2 1 3 4 6 6 6 6 5 5 5 5 4 6 6 4 5 12
24 24 18 14 15 12 9 5 4 3 3 3 2 7 7 6 6 5 4 3 4 3 1 2 1 2 2 3 3 4 3 7 6 6 4 4 5 5 5 5 3 3 3
21 19 16 11 11 8 5 5 4 3 2 5 2 6 6 6 7 6 4 5 5 3 5 5 4 3 2 4 2 2 4 5 4 6 6 5 6 5 6 6 6 6 5
18 18 17 13 5 9 13 5 4 3 3 3 2 5 5 7 7 6 6 6 3 4 4 5 5 5 3 3 5 2 4 3 5 4 5 5 7 7 6 6 7 8 6
15 13 17 21 28 18 8 7 6 6 6 3 4 5 6 7 7 7 7 5 6 4 6 4 4 3 3 3 3 2 2 3 3 5 4 6 5 7 6 6 7 7 7
18 12 6 6 6 7 6 7 7 6 3 5 7 10 7 7 8 8 9 7 7 6 5 7 6 6 4 3 3 4 3 3 2 4 6 7 6 6 5 4 6 7 7
13 10 10 8 5 5 6 7 8 10 10 10 8 6 6 6 6 8 9 7 7 6 6 5 6 6 5 5 3 4 2 2 4 3 5 6 6 6 8 5 6 5 5
Wind_Direction
146 145 141 133 128 125 122 121 117 114 111 107 103 99 96 94 97 100 102 103 108 113 112 106 100 102 96 88 83 85 86 92 102 105 96 102 109 106 95 67 109 110 107
134 147 139 131 126 124 122 119 116 116 115 111 107 104 101 98 96 98 102 104 106 111 114 106 101 93 87 83 76 72 75 76 76 86 99 112 119 124 115 97 96 109 116
134 140 136 131 129 126 123 122 121 122 120 117 114 109 106 102 101 103 103 104 106 108 107 103 101 97 91 86 78 74 67 57 51 61 99 123 144 151 136 122 118 124 128
132 138 135 132 129 128 125 125 125 127 125 120 118 115 115 111 107 105 106 106 108 109 109 105 103 100 95 90 84 73 46 23 359 354 309 239 210 180 168 146 144 151 162
129 131 137 133 131 132 130 131 130 129 127 124 124 124 124 123 118 113 111 113 116 115 111 112 113 113 107 100 92 72 29 357 338 317 271 234 209 189 177 167 166 172 193
129 126 133 133 135 135 135 136 135 133 132 130 129 129 129 129 124 123 124 124 123 122 125 127 126 127 126 120 117 100 344 330 315 304 295 317 172 177 176 179 180 183 192
121 126 129 132 135 136 136 138 138 136 135 135 136 137 138 135 128 128 130 137 139 136 136 138 143 148 148 151 158 187 263 293 296 287 292 333 193 174 182 186 186 187 197
128 126 132 133 135 140 140 140 141 139 139 137 139 140 141 142 140 144 148 152 151 150 152 154 163 172 171 179 192 215 245 266 293 298 289 287 211 180 185 190 192 195 204
126 124 127 140 148 149 148 146 145 144 143 143 145 146 147 148 150 152 156 155 156 157 159 168 184 197 203 215 230 245 265 280 293 301 305 326 207 203 194 200 200 200 209
128 129 134 138 149 153 152 150 147 147 145 145 145 147 148 151 151 150 157 160 165 172 173 199 211 227 239 248 258 266 269 273 269 265 271 272 214 219 209 212 219 213 216
135 138 144 149 151 152 145 152 145 145 143 143 145 147 143 146 152 160 171 177 177 183 195 217 236 251 255 256 255 256 258 250 263 264 258 257 247 213 213 210 217 221 223
148 153 156 159 161 155 154 153 144 148 144 144 144 152 155 164 170 174 189 184 184 192 200 212 228 237 248 241 258 253 247 248 249 265 263 257 251 211 211 212 217 221 226
159 159 164 162 164 159 139 149 149 146 149 154 160 168 180 177 184 190 177 191 183 200 194 207 221 223 219 217 245 235 231 230 236 253 261 280 226 216 217 219 227 226 226
165 161 162 162 162 149 143 158 155 157 160 165 170 179 189 185 192 181 183 180 188 187 208 222 212 224 230 230 234 240 230 224 226 236 240 247 215 224 227 228 235 238 236
165 162 154 158 171 150 150 158 160 162 163 172 165 187 179 196 200 190 179 170 186 186 202 212 221 219 235 237 250 255 258 245 252 254 274 282 227 219 230 237 239 240 243
167 156 162 164 144 152 160 167 167 171 174 171 169 185 191 190 197 200 172 182 188 197 210 199 216 208 203 205 237 253 259 259 258 260 253 259 295 271 265 281 295 314 327
92 6 120 131 137 151 158 183 174 185 173 176 178 177 184 182 188 162 111 41 330 310 36 115 43 22 8 342 318 321 311 292 289 275 284 359 340 312 305 309 267 346 351
129 119 85 170 182 135 156 169 195 175 188 176 173 168 168 181 126 75 76 16 324 74 84 62 46 14 356 359 340 319 319 309 298 306 294 268 102 101 133 238 280 241 255
131 143 169 187 85 97 117 124 126 112 109 108 150 159 161 157 136 126 121 319 334 36 37 61 33 67 345 327 315 307 309 306 303 300 285 292 273 242 241 246 230 231 262
138 146 160 158 123 222 204 138 112 94 83 129 140 136 134 152 145 151 187 101 94 61 21 24 39 16 309 295 305 303 279 283 275 277 278 275 255 263 253 277 307 277 250
145 148 156 169 173 177 172 154 136 153 143 57 55 123 139 158 160 146 110 95 73 63 310 359 8 327 326 291 316 306 291 277 289 286 316 298 286 272 289 302 278 282 306
144 154 151 178 191 199 171 150 136 122 124 114 104 121 145 108 103 106 125 91 79 60 30 26 25 2 330 22 341 285 325 331 355 343 314 324 313 317 304 310 303 295 286
151 146 149 170 197 254 205 132 102 108 81 87 123 89 77 91 94 103 80 79 57 62 69 54 45 43 5 336 18 317 332 301 331 284 324 321 335 333 328 320 303 278 267
145 144 152 167 160 211 165 152 178 132 162 161 114 104 79 79 81 78 88 71 57 59 57 35 34 49 46 349 337 62 274 263 314 316 350 310 353 331 322 312 322 304 284
155 159 152 155 147 135 151 141 147 152 130 104 108 93 83 64 71 70 71 68 57 52 46 45 27 24 20 26 19 342 330 323 293 311 311 331 317 321 306 313 300 317 330
129 128 156 153 151 130 151 161 145 138 126 120 114 113 90 84 70 61 58 61 53 53 44 34 20 16 36 36 8 9 2 329 314 313 310 319 305 311 324 324 337 323 327